Location: Cran-Gévrier
(45.9039°N, 6.1012°E)
Time: 04:49:36
(UTC+00:00)

PCSat - Pass Details

Date: 11 December 2023
Orbit: 784 x 791 km, 67.0° (Epoch: 22 February)

Event Time Altitude Azimuth Distance (km) Brightness Sun altitude
Exits shadow 04:24:26 14° 2° (N) 2,093 11.7 -27.2°
Drops below altitude 10° 04:25:29 10° 11° (N) 2,361 12.1 -27.0°
Sets 04:28:31 0° 28° (NNE) 3,295 13.0 -26.5°
